Current weather by "City, St" or "zip code"  
 
Advertise Here

Current Conditions: Westerly, Westerly State Airport, RI

Mostly Cloudy


40.0 F

Last Updated on Jan 17 2021, 10:53 pm EST
Humidity: 65%
Wind Speed: W 9.2 G 17.3 mph
Barometer 29.67 in
Dewpoint: 28.9 F
Visibility: 10.00 mi
Precip: --
Heat Index: NA
Wind Chill: 34 F
Current conditions at:

Westerly, Westerly State Airport, RI (KWST)

Lat: 41.34972 Lon: 71.79889

Local Radar Image active severe weather and emergency alerts image image weather storm and storm spotter reports image weather observation monitoring service image
Local
Radar
Active
Alerts
Storm Reports Obs
Monitoring

Sign-up For Email & Text Message Weather Alert Notification Services


Advertise Here

Observation History for Westerly, Westerly State Airport, RI


Time Wind
(mph)
Vis
(mi)
Weather Precip (in) Temperature (F) Relative
Humidity
Wind
Chill
(F)
Heat
Index
(F)
Pressure
Air Dwpt altimeter
(in)
sea level
(mb)
Rmks
10:53 pm EST W 9.2 G 17.3 10.00 Mostly Cloudy -- 40.0 28.9 65% 34 NA 29.67 1004.7
9:53 pm EST W 13.8 G 20.7 10.00 Overcast -- 40.0 28.9 65% 32 NA 29.67 1004.9
8:53 pm EST SW 11.5 G 26.5 10.00 Overcast -- 40.0 30.9 70% 33 NA 29.67 1004.6
7:53 pm EST W 9.2 G 16.1 10.00 Overcast -- 40.0 32.0 73% 34 NA 29.66 1004.4
6:53 pm EST SW 13.8 G 19.6 10.00 Fair -- 40.0 27.0 60% 32 NA 29.65 1003.9
5:53 pm EST W 11.5 G 19.6 10.00 Fair -- 40.0 25.0 55% 33 NA 29.62 1003.1
4:53 pm EST 6.9 10.00 A Few Clouds -- 40.0 24.1 53% 35 NA 29.60 1002.2
3:53 pm EST W 10.4 G 18.4 10.00 Fair -- 42.0 23.0 47% 36 NA 29.56 1001.2
2:53 pm EST W 12.7 G 23.0 10.00 Fair -- 42.0 21.9 45% 35 NA 29.55 1000.5
1:53 pm EST SW 16.1 G 31.1 10.00 Partly Cloudy -- 41.0 27.0 57% 33 NA 29.52 999.8
12:53 pm EST SW 16.1 G 31.1 10.00 Fair -- 41.0 25.0 53% 33 NA 29.50 999.0
11:53 am EST SW 21.9 G 33.4 10.00 A Few Clouds and Breezy -- 40.0 26.1 58% 30 NA 29.51 999.4
10:53 am EST W 18.4 G 28.8 10.00 Fair -- 38.0 25.0 60% 28 NA 29.53 1000.1
9:53 am EST W 13.8 G 28.8 10.00 Fair -- 38.0 23.0 55% 30 NA 29.53 999.8
8:53 am EST W 13.8 G 29.9 10.00 Fair -- 37.0 23.0 57% 28 NA 29.51 999.4
7:53 am EST W 15.0 G 27.6 10.00 Fair -- 36.0 25.0 64% 27 NA 29.50 998.9
6:53 am EST W 8.1 G 31.1 10.00 Fair -- 35.0 24.1 64% 28 NA 29.49 998.6
5:53 am EST W 13.8 G 27.6 10.00 Fair -- 35.0 25.0 67% 26 NA 29.47 997.9
4:53 am EST W 11.5 G 28.8 10.00 Fair -- 35.0 26.1 70% 27 NA 29.44 997.1
3:53 am EST W 10.4 G 21.9 10.00 Fair -- 35.0 25.0 67% 27 NA 29.43 996.6
2:53 am EST W 9.2 G 20.7 10.00 Fair -- 34.0 25.0 70% 27 NA 29.42 996.2
1:53 am EST W 9.2 G 18.4 10.00 Fair -- 34.0 26.1 73% 27 NA 29.40 995.5
12:53 am EST W 10.4 G 19.6 10.00 Fair -- 34.0 26.1 73% 26 NA 29.37 994.4
11:53 pm EST W 6.9 10.00 Fair -- 35.0 28.9 78% 29 NA 29.33 993.3

Regional Weather Observation


Willimantic, Windham Airport, CT (KIJD)

Mostly Cloudy
39.0 F

Westerly, Westerly State Airport, RI (KWST)

Mostly Cloudy
40.0 F

Montauk, Montauk Airport, NY (KMTP)

NULL
42.0 F

Chester, Chester Airport, CT (KSNC)

Overcast
39.0 F

N. Kingston / Quonset, RI (KOQU)

Mostly Cloudy
43.0 F

Providence, Theodore Francis Green State Airport, RI (KPVD)

Partly Cloudy
40.0 F